BLOCK DM-SL R/B, 28627

Orbit data source: Space-Track

BLOCK DM-SL R/B, 28627 is space debris in HEO originally from a launch on Tue, 01 Mar 2005 UTC launched from the Sea Launch (SEAL). Debris objects in space refer to the collection of defunct objects orbiting the Earth. Examples of debris include non-operational satellites, rocket bodies, and fragments generated from explosions, collisions, or faulty payload assembly.

Loading next visibility...
Identifier
28627, 2005-008B
Orbit
HEO
Last TLE update
1 day ago
Origin
Manufacturer
RKKE
Mission
Spacecraft
Bus & Motor
BLOK DM2, 11D58M
Mass
~3,070 kg wet, 3,070 kg dry
Launch date (UTC)
2005-03-01 (20 years ago)
Launch vehicle
Unknown
Launch site
Sea Launch (SEAL)
Object type
Payload
Rocket body
Debris
Shape & HBR
Cyl, 6.3 m
Radar Cross Section
23.684 m², Large (>1 m²)

Expand to show TLE details & history

TLE from 1 day ago
0 BLOCK DM-SL R/B
1 28627U 05008B   25189.30220180 -.00000107  00000-0  00000-0 0  9998
2 28627   0.1386  93.8164 6533451  69.6282 236.8796  2.13876860159081
Epoch: 2025-07-08T07:15Z
TLE epoch observation values (Epoch: 2025-07-08T07:15:10.235Z)
Latitude
-0.12868°
Longitude
-35.29199°
Altitude
32,604.981 km
Speed
2.188 km/s
True Right ascension
23h 59m 59s
True Declination
0° 07' 43"
Sunlit
Object was in daylight at epoch
Visualization orbit readout
Latitude
-0.13118°
Longitude
-59.25756°
Altitude
34,986.566 km
Speed
1.9 km/s
Apparent Right ascension
21h 59m 03s
Apparent Declination
-6° 03' 43"
Sunlit
Object is in daylight
Visualization observer readout
Local Sidereal Time
02:28:04
Azimuth
250.337° W
Elevation
13.128°
Doppler factor
1
Orbital elements
Apogee altitude
35,700.129 km
Perigee altitude
2,444.363 km
Semi-major axis
25,450.383 km
Eccentricity
0.65335
Inclination
0.1386°
RAAN
93.8164°
Arg. of periapsis
69.6282°
True anomaly
Unknown
Mean anomaly
236.8796°
Eccentric anomaly
Unknown
Mean motion
0.53457 °/min
Orbital period
673.44 mins
BSTAR
0
Loading maneuver chart data...
Loading SW <> Apogee altitude chart data...
Loading historical data...
Loading historical data...
Loading historical data...
Loading historical data...
Loading historical data...
Loading historical data...
Loading historical data...
Other satellites on launch #8 in the year 2005 (2005-03-01 UTC)

BLOCK DM-SL R/B Visibility forecast

Observer location: undefined°, undefined°

Span
Click to sort rows by Start time (UTC) header in descending order
Start Az.
Max El. time (UTC)
Max El. Az.
Max El.
End time (UTC)
End Az.
41 mins2025-07-09 14:17:27.131Z250.322° W2025-07-09 14:17:27.131Z250.322° W12.789°2025-07-09 14:58:27.131Z253.319° W
324 mins2025-07-10 08:53:27.131Z238.914° WSW2025-07-10 11:00:27.131Z222.353° SW28.337°2025-07-10 14:17:27.131Z239.67° WSW
|